Defiance, OH

10:12 PM EST on December 04, 2016 (GMT -0500)
Defiance Memorial

Weather History for KDFI - October, 2012

Change the Weather History Date:

Friday, October 12, 2012

  Actual Average Record
Temperature  
Mean Temperature 46 °F -  
Max Temperature 55 °F 62 °F 86 °F (1938)
Min Temperature 37 °F 41 °F 21 °F (1964)
Degree Days  
Heating Degree Days 20    
Moisture  
Dew Point 30 °F    
Average Humidity 57    
Maximum Humidity 74    
Minimum Humidity 28    
Precipitation  
Precipitation 0.00 in - - ()
Sea Level Pressure  
Sea Level Pressure 30.36 in    
Wind  
Wind Speed 8 mph (NNE)    
Max Wind Speed 13 mph    
Max Gust Speed 18 mph    
Visibility 10 miles    
Events      
Averages and records for this station are not official NWS values.
T = Trace of Precipitation, MM = Missing Value Source: NWS Daily Summary

Daily Weather History Graph

Daily Weather History Graph

Search for Another Location

Airport or City:

Trip Planner

Search our weather history database for the weather conditions in past years. The results will help you decide how hot, cold, wet, or windy it might be!

Date:

Astronomy

Oct. 12, 2012 Rise Set
Actual Time 7:46 AM EDT 7:00 PM EDT
Civil Twilight 7:18 AM EDT 7:28 PM EDT
Nautical Twilight 6:46 AM EDT 8:00 PM EDT
Astronomical Twilight 6:14 AM EDT 8:32 PM EDT
Moon 4:26 AM EDT (10/12) 5:11 PM EDT (10/12)
Length of Visible Light 12h 09m
Length of Day
11h 13m
Waning Crescent, 11% of the Moon is Illuminated
Oct 12
Waning Crescent
Oct 15
New
Oct 21
First Quarter
Oct 29
Full
Nov 6
Last Quarter

Hourly Weather History & Observations

Time (EDT) Temp. Windchill Dew Point Humidity Pressure Visibility Wind Dir Wind Speed Gust Speed Precip Events Conditions
12:53 AM 51.1 °F - 37.0 °F 59% 30.19 in 10.0 mi NW 5.8 mph - N/A   Mostly Cloudy
2:53 AM 48.0 °F - 37.0 °F 66% 30.23 in 10.0 mi North 12.7 mph 18.4 mph N/A   Overcast
3:53 AM 46.0 °F 40.2 °F 36.0 °F 68% 30.25 in 10.0 mi North 12.7 mph - N/A   Overcast
4:45 AM 46.4 °F 41.9 °F 35.6 °F 66% 30.28 in 10.0 mi North 9.2 mph - N/A   Overcast
4:53 AM 45.0 °F 38.9 °F 36.0 °F 71% 30.29 in 10.0 mi NNE 12.7 mph 18.4 mph N/A   Overcast
5:48 AM 44.6 °F 41.4 °F 35.6 °F 71% 30.30 in 10.0 mi North 5.8 mph - N/A   Overcast
5:53 AM 44.1 °F 40.8 °F 35.1 °F 71% 30.32 in 10.0 mi North 5.8 mph - N/A   Overcast
6:53 AM 43.0 °F 39.5 °F 35.1 °F 74% 30.35 in 10.0 mi North 5.8 mph - N/A   Overcast
7:53 AM 42.1 °F 37.7 °F 33.1 °F 70% 30.38 in 10.0 mi North 6.9 mph - N/A   Scattered Clouds
8:53 AM 43.0 °F 37.7 °F 34.0 °F 71% 30.41 in 10.0 mi North 9.2 mph - N/A   Clear
9:53 AM 45.0 °F 39.7 °F 32.0 °F 60% 30.43 in 10.0 mi NE 10.4 mph - N/A   Clear
10:53 AM 46.0 °F 41.0 °F 28.0 °F 50% 30.45 in 10.0 mi NE 10.4 mph - N/A   Clear
1:53 PM 52.0 °F - 26.1 °F 37% 30.43 in 10.0 mi NE 8.1 mph - N/A   Clear
2:53 PM 53.1 °F - 23.0 °F 31% 30.42 in 10.0 mi NNE 5.8 mph - N/A   Clear
3:53 PM 54.0 °F - 21.9 °F 29% 30.41 in 10.0 mi Variable 4.6 mph - N/A   Clear
4:53 PM 54.0 °F - 21.0 °F 28% 30.40 in 10.0 mi Variable 3.5 mph - N/A   Clear
6:53 PM 50.0 °F - 23.0 °F 35% 30.39 in 10.0 mi ESE 4.6 mph - N/A   Clear
7:53 PM 45.0 °F 41.8 °F 25.0 °F 46% 30.40 in 10.0 mi ESE 5.8 mph - N/A   Clear
8:53 PM 42.1 °F 38.4 °F 27.0 °F 55% 30.41 in 10.0 mi ESE 5.8 mph - N/A   Clear
10:53 PM 37.9 °F 34.4 °F 28.9 °F 70% 30.42 in 10.0 mi East 4.6 mph - N/A   Clear
11:53 PM 37.9 °F 34.4 °F 28.9 °F 70% 30.40 in 10.0 mi East 4.6 mph - N/A   Clear